Location: Newark
(46.7000°N, 60.6000°W)
Time: 21:48:31
(UTC+00:00)

Vanguard 1 Rocket - Pass Details

Date: 04 November 2020
Orbit: 656 x 4221 km, 34.3° (Epoch: 30 November)

Event Time Altitude Azimuth Distance (km) Brightness Sun altitude
Rises 15:43:31 0° 254° (WSW) 3,314 10.5 27.6°
Reaches altitude 10° 15:47:04 10° 231° (SW) 2,147 10.0 27.7°
Maximum altitude 15:49:44 15° 194° (SSW) 1,743 10.7 27.6°
Drops below altitude 10° 15:52:20 10° 158° (SSE) 2,067 10.5 27.6°
Sets 15:55:38 0° 134° (SE) 3,116 10.7 27.6°
